Ashland, WI

9:54 PM CST on February 24, 2017 (GMT -0600)
Kennedy Memorial

Weather History for KASX - September, 2013

Change the Weather History Date:

Sunday, September 15, 2013

  Actual Average Record
Temperature  
Mean Temperature 46 °F -  
Max Temperature 55 °F 66 °F 86 °F (2015)
Min Temperature 37 °F 45 °F 24 °F (1964)
Degree Days  
Heating Degree Days 19    
Moisture  
Dew Point 48 °F    
Average Humidity 91    
Maximum Humidity 100    
Minimum Humidity 67    
Precipitation  
Precipitation 0.26 in - - ()
Sea Level Pressure  
Sea Level Pressure 30.16 in    
Wind  
Wind Speed 6 mph (NNE)    
Max Wind Speed 20 mph    
Max Gust Speed 30 mph    
Visibility 6 miles    
Events Rain    
Averages and records for this station are not official NWS values.
T = Trace of Precipitation, MM = Missing Value Source: NWS Daily Summary

Daily Weather History Graph

Daily Weather History Graph

Search for Another Location

Airport or City:

Trip Planner

Search our weather history database for the weather conditions in past years. The results will help you decide how hot, cold, wet, or windy it might be!

Date:

Astronomy

Sep. 15, 2013 Rise Set
Actual Time 6:41 AM CDT 7:14 PM CDT
Civil Twilight 6:11 AM CDT 7:45 PM CDT
Nautical Twilight 5:35 AM CDT 8:20 PM CDT
Astronomical Twilight 4:58 AM CDT 8:58 PM CDT
Moon 4:52 PM CDT (9/15) 2:07 AM CDT (9/15)
Length of Visible Light 13h 33m
Length of Day
12h 32m
Waxing Gibbous, 82% of the Moon is Illuminated
Sep 15
Waxing Gibbous
Sep 19
Full
Sep 26
Last Quarter
Oct 4
New
Oct 11
First Quarter

Hourly Weather History & Observations

Time (CDT) Temp. Windchill Dew Point Humidity Pressure Visibility Wind Dir Wind Speed Gust Speed Precip Events Conditions
12:19 AM 55.4 °F - 53.6 °F 94% 29.97 in 10.0 mi Calm Calm - N/A   Overcast
12:29 AM 55.4 °F - 53.6 °F 94% 29.97 in 10.0 mi Calm Calm - N/A   Overcast
12:53 AM 55.9 °F - 53.1 °F 90% 29.97 in 10.0 mi Calm Calm - N/A   Mostly Cloudy
1:13 AM 55.4 °F - 53.6 °F 94% 29.97 in 10.0 mi Calm Calm - N/A   Mostly Cloudy
1:53 AM 55.0 °F - 53.1 °F 93% 29.97 in 10.0 mi Calm Calm - N/A   Overcast
2:53 AM 54.0 °F - 53.1 °F 97% 29.98 in 10.0 mi Calm Calm - N/A   Overcast
3:21 AM 55.4 °F - 53.6 °F 94% 29.98 in 10.0 mi Calm Calm - 0.00 in Rain Light Rain
3:53 AM 55.9 °F - 54.0 °F 93% 29.99 in 10.0 mi Calm Calm - 0.01 in   Overcast
4:53 AM 55.0 °F - 54.0 °F 96% 29.99 in 10.0 mi Calm Calm - N/A   Overcast
5:53 AM 55.0 °F - 54.0 °F 96% 30.01 in 10.0 mi Calm Calm - 0.01 in   Overcast
6:53 AM 55.0 °F - 54.0 °F 96% 30.01 in 10.0 mi Calm Calm - N/A   Overcast
7:53 AM 55.9 °F - 54.0 °F 93% 30.04 in 10.0 mi Calm Calm - N/A   Overcast
8:29 AM 55.4 °F - 53.6 °F 94% 30.04 in 2.5 mi NW 6.9 mph - 0.02 in Rain Light Rain
8:34 AM 55.4 °F - 53.6 °F 94% 30.04 in 1.5 mi NE 11.5 mph - 0.03 in Rain Light Rain
8:53 AM 55.9 °F - 54.0 °F 93% 30.06 in 1.8 mi NE 17.3 mph - 0.06 in Rain Light Rain
9:00 AM 55.4 °F - 53.6 °F 94% 30.06 in 2.0 mi NNE 19.6 mph 27.6 mph 0.00 in   Overcast
9:10 AM 53.6 °F - 53.6 °F 100% 30.07 in 1.5 mi NE 18.4 mph 26.5 mph 0.01 in   Overcast
9:53 AM 53.1 °F - 51.1 °F 93% 30.12 in 1.0 mi NE 17.3 mph 29.9 mph 0.06 in   Overcast
10:34 AM 51.8 °F - 50.0 °F 94% 30.14 in 1.8 mi NE 15.0 mph 28.8 mph 0.04 in   Overcast
10:45 AM 51.8 °F - 50.0 °F 94% 30.14 in 1.8 mi NE 19.6 mph 27.6 mph 0.06 in   Overcast
10:53 AM 52.0 °F - 50.0 °F 93% 30.16 in 1.5 mi NNE 18.4 mph 26.5 mph 0.06 in   Overcast
11:15 AM 51.8 °F - 50.0 °F 94% 30.16 in 2.5 mi NE 15.0 mph 23.0 mph 0.01 in   Overcast
11:32 AM 51.8 °F - 50.0 °F 94% 30.17 in 1.5 mi NE 17.3 mph 24.2 mph 0.03 in Rain Light Rain
11:53 AM 52.0 °F - 50.0 °F 93% 30.19 in 1.8 mi NE 15.0 mph 25.3 mph 0.04 in   Overcast
12:00 PM 51.8 °F - 48.2 °F 88% 30.18 in 2.5 mi NE 16.1 mph 23.0 mph 0.01 in   Overcast
12:29 PM 51.8 °F - 50.0 °F 94% 30.19 in 2.5 mi NE 13.8 mph 21.9 mph 0.01 in   Overcast
12:41 PM 51.8 °F - 48.2 °F 88% 30.20 in 3.0 mi NE 12.7 mph - 0.01 in   Overcast
12:51 PM 51.8 °F - 48.2 °F 88% 30.20 in 2.0 mi NE 16.1 mph 21.9 mph 0.02 in   Overcast
12:53 PM 51.1 °F - 48.9 °F 92% 30.22 in 2.0 mi NE 16.1 mph 21.9 mph 0.02 in   Overcast
1:09 PM 51.8 °F - 48.2 °F 88% 30.21 in 4.0 mi NE 16.1 mph 24.2 mph N/A   Overcast
1:53 PM 52.0 °F - 48.0 °F 86% 30.24 in 10.0 mi NE 10.4 mph 20.7 mph N/A   Overcast
2:53 PM 53.1 °F - 46.0 °F 77% 30.25 in 10.0 mi NE 16.1 mph - N/A   Overcast
3:53 PM 54.0 °F - 46.0 °F 75% 30.26 in 10.0 mi NNE 11.5 mph - N/A   Overcast
4:04 PM 53.6 °F - 44.6 °F 72% 30.26 in 10.0 mi NNE 12.7 mph - N/A   Overcast
4:53 PM 53.1 °F - 45.0 °F 74% 30.29 in 10.0 mi NNE 8.1 mph - N/A   Overcast
5:29 PM 53.6 °F - 42.8 °F 67% 30.28 in 10.0 mi NE 8.1 mph - N/A   Scattered Clouds
5:53 PM 53.1 °F - 43.0 °F 69% 30.30 in 10.0 mi NE 5.8 mph - N/A   Clear
6:53 PM 48.0 °F - 43.0 °F 83% 30.31 in 10.0 mi Calm Calm - N/A   Clear
7:53 PM 42.1 °F - 39.9 °F 92% 30.32 in 10.0 mi Calm Calm - N/A   Clear
8:53 PM 39.0 °F - 37.9 °F 96% 30.34 in 10.0 mi Calm Calm - N/A   Clear
9:32 PM 39.2 °F 37.0 °F 39.2 °F 100% 30.32 in 1.8 mi WSW 3.5 mph - N/A   Clear
9:42 PM 39.2 °F 37.0 °F 39.2 °F 100% 30.32 in 3.0 mi WSW 3.5 mph - N/A   Clear
9:48 PM 39.2 °F 37.0 °F 37.4 °F 93% 30.32 in 1.8 mi WSW 3.5 mph - N/A   Clear
9:53 PM 39.0 °F - 37.9 °F 96% 30.35 in 1.0 mi Calm Calm - N/A   Clear
10:00 PM 37.4 °F 34.9 °F 37.4 °F 100% 30.32 in 4.0 mi WSW 3.5 mph - N/A   Clear
10:53 PM 39.0 °F 36.8 °F 37.0 °F 93% 30.36 in 3.0 mi WSW 3.5 mph - N/A   Clear
11:53 PM 37.9 °F - 37.0 °F 97% 30.37 in 7.0 mi Calm Calm - N/A   Clear